Regional Weather Roundup
Issued by NWS

Home | Current Version | Previous Version | Text Only | Print | Product List | Glossary On
Versions: 1 2 3 4 5 6 7 8 9 10 11 12 13 14 15 16 17 18 19 20 21 22 23 24 25 26 27 28 29 30 31 32 33 34 35 36 37 38 39 40 41 42 43 44 45 46 47 48 49 50
000
ASUS45 KSLC 061710
RWRUT

UTAH REGIONAL WEATHER ROUNDUP
NATIONAL WEATHER SERVICE SALT LAKE CITY UT
1000 AM MST TUE DEC 06 2016

UTZ001>011-023>025-061800-

NORTHERN UTAH

CITY           SKY/WX    TMP DP  RH WIND       PRES   REMARKS
BRIGHAM CITY     N/A     20   8  60 CALM      29.89S
DUGWAY         MOSUNNY   27   6  41 SW2       29.86
HILL AFB       CLOUDY    15   0  49 E15       29.84S WCI   0
LOGAN          CLOUDY   N/A N/A N/A N5        29.90R
OGDEN          CLOUDY    21   4  47 NE12      29.85S WCI   9
SALT LAKE CITY PTSUNNY   29   9  43 S5        29.85F WCI  24
TOOELE VALLEY  MOSUNNY   30  14  51 CALM      29.86S
WENDOVER       CLOUDY    21   7  53 CALM      29.87S
HEBER CITY     SUNNY     18   3  53 CALM      29.83F
WEST JORDAN    CLOUDY    29  16  58 SE6       29.84F WCI  23

$$

UTZ011>015-024>027-061800-

CENTRAL/NORTHEAST UTAH

CITY           SKY/WX    TMP DP  RH WIND       PRES   REMARKS
PROVO AIRPORT  SUNNY     24  10  55 NE3       29.86F
MOAB/CANYONLAN MOSUNNY   29   3  33 SE6       29.87F WCI  23
DELTA          SUNNY     21   9  58 S5        29.84F WCI  15
PRICE          SUNNY     24   9  52 CALM      29.84S
ROOSEVELT      SUNNY     23   0  36 CALM      29.93S
VERNAL         SUNNY     21  -6  30 SE6       29.90F WCI  13

$$

UTZ013>016-019>022-027-061800-

SOUTHERN UTAH

CITY           SKY/WX    TMP DP  RH WIND       PRES   REMARKS
BRYCE CANYON   CLOUDY    28  12  51 S7        29.82R WCI  21
CEDAR CITY     PTSUNNY   22  14  71 CALM      29.84R
MILFORD        SUNNY     22  10  60 S13       29.83F WCI  10
ST GEORGE      SUNNY     39  21  48 NW3       29.90R
HANKSVILLE     MOSUNNY   27  10  50 CALM      29.93S
BLANDING       CLOUDY    34  19  54 E5        29.90F WCI  29

$$

REGIONAL REPORTS     COLORADO/ARIZONA

CITY           SKY/WX    TMP DP  RH WIND       PRES   REMARKS
CRAIG, CO      CLOUDY    13  -3  49 E13       29.89F WCI  -2
GRAND JUNCTION CLOUDY    27   8  44 E10       29.88F WCI  17
RIFLE, CO      PTSUNNY   22   9  57 CALM      29.90F
MONTROSE, CO   CLOUDY    24   7  48 SE5       29.90F WCI  18
CORTEZ, CO     CLOUDY    33  21  61 W3        29.86S
COLORADO CITY    N/A     43  23  45 S3        29.90R
PAGE, AZ       CLOUDY    43  14  31 CALM      29.84R
GRAND CANYON   PTSUNNY   36  19  50 SW14      29.92R WCI  27
KINGMAN, AZ    PTSUNNY   51  15  23 VRB6      29.89R
FLAGSTAFF, AZ  MOSUNNY   36  16  44 SW25G31   29.93S WCI  24

$$

REGIONAL REPORTS    NEVADA/IDAHO/WYOMING

CITY           SKY/WX    TMP DP  RH WIND       PRES   REMARKS
LAS VEGAS, NV  MOSUNNY   50  18  28 CALM      29.87R
ELY, NY        SUNNY     23  11  60 S8        29.78S WCI  14
ELKO, NV       SUNNY     20  11  68 E3        29.83S
POCATELLO, ID  MOSUNNY   17   7  64 N6        29.87R WCI   9
BURLEY, ID     CLOUDY    16  11  80 E9        29.86R WCI   4
FORT BRIDGER,  CLOUDY     1  -6  74 CALM      29.85F
EVANSTON, WY   CLOUDY     7  -8  50 E10       29.78S WCI  -8
ROCK SPRINGS,  SUNNY      2  -8  63 CALM      29.85S
KEMMERER, WY     N/A      1  -8  66 N7        29.80F WCI -11

$$



USA.gov is the U.S. government's official web portal to all federal, state and local government web resources and services.